Regional Weather Roundup
Issued by NWS

Home | Current Version | Previous Version | Graphics & Text | Print | Product List | Glossary On
Versions: 1 2 3 4 5 6 7 8 9 10 11 12 13 14 15 16 17 18 19 20 21 22 23 24 25 26 27
000
ASUS45 KBOU 251707
RWRCO

WEATHER ROUNDUP FOR COLORADO
NATIONAL WEATHER SERVICE DENVER/BOULDER CO
1100 AM MDT MON JUL 25 2016

NOTE: "FAIR" INDICATES FEW OR NO CLOUDS BELOW 12000 FEET WITH NO
SIGNIFICANT WEATHER AND/OR OBSTRUCTIONS TO VISIBILITY.

COZ001>005-013-030-031-251800-
...NORTHWEST COLORADO...

CITY           SKY/WX    TMP DP  RH WIND       PRES   REMARKS
CRAIG          FAIR      81  43  26 VRB3      30.28F
HAYDEN         FAIR      77  43  29 E5        30.31S
MEEKER         FAIR      80  42  25 CALM      30.29F
MOUNT WERNER   NOT AVBL
STEAMBOAT SPGS FAIR      76  43  30 CALM      30.32F
WALDEN         FAIR      70  41  35 CALM      30.43S
$$

COZ006>008-011-251800-
...WEST CENTRAL VALLEYS...

CITY           SKY/WX    TMP DP  RH WIND       PRES   REMARKS
GRAND JUNCTION FAIR      87  41  19 SE10G16   30.18S
MONTROSE       FAIR      84  46  26 VRB6      30.26F
EAGLE          SUNNY     73  41  31 CALM      30.35F
RIFLE          FAIR      80  45  28 NW5       30.24F
DELTA          FAIR      86  41  20 E6        30.23S
NUCLA          NOT AVBL
$$

COZ017>023-064>068-251800-
...SOUTHWEST COLORADO...

CITY           SKY/WX    TMP DP  RH WIND       PRES   REMARKS
DURANGO        FAIR      79  48  33 N10       30.35F
CORTEZ         FAIR      84  49  29 VRB3      30.28F
PAGOSA SPRINGS FAIR      76  39  26 CALM      30.44F
TELLURIDE      FAIR      74  37  25 W6        30.55S
WOLF CREEK PAS PTSUNNY   59  41  51 S9        30.79S
$$

COZ009-010-012-014-032>034-037-058>063-251800-
...CENTRAL COLORADO...

CITY           SKY/WX    TMP DP  RH WIND       PRES   REMARKS
ASPEN          FAIR      74  42  31 N6        30.40F
BUENA VISTA    FAIR      74  42  31 E7        30.43F
COPPER MTN     FAIR      64  27  24 W7G20     30.77R
BERTHOUD PASS  FAIR      54  39  58 MISG      30.78R
COTTONWOOD PAS FAIR      73  37  27 E8        30.58S
GUNNISON       FAIR      72  43  35 CALM      30.46F
KREMMLING      FAIR      70  43  37 CALM      30.41F
LEADVILLE      FAIR      69  30  23 CALM      30.57F
MONARCH PASS   FAIR      61  30  31 MISG      30.87R
SALIDA         FAIR      76  45  33 E3        30.47F
SUNLIGHT       FAIR      70  39  32 CALM      30.69R
WILKERSON PASS FAIR      64  32  29 SW6       30.73R
$$

COZ069>075-251800-
...SAN LUIS VALLEY/SANGRE DE CRISTO MOUNTAINS...

CITY           SKY/WX    TMP DP  RH WIND       PRES   REMARKS
ALAMOSA        FAIR      74  47  38 CALM      30.42F
LA VETA PASS   FAIR      66  43  42 S6        30.63R
SAGUACHE       FAIR      73  46  38 SE7       30.46S
$$

COZ035-036-038>040-251800-
...NORTHERN COLORADO FRONT RANGE...

CITY           SKY/WX    TMP DP  RH WIND       PRES   REMARKS
DENVER INTL AP FAIR      80  53  39 E6        30.20F
DMNS CITY PARK   N/A     79  53  40 SE3       30.19F
AURORA         MOSUNNY   81  53  38 VRB3      30.22F
FRONT RANGE AP NOT AVBL
ERIE MUNI ARPT FAIR      76  56  51 CALM      30.20S
BOULDER MUN AP FAIR      77  54  44 E5        30.20S
CENTENNIAL     FAIR      82  50  32 N7        30.23F
BROOMFIELD     MOSUNNY   75  55  50 CALM      30.23F
LONGMONT       FAIR      78  58  50 SE5       30.21S
$$

COZ041-046-047-076>085-087-088-251800-
...PIKES PEAK/PALMER DIVIDE AND SOUTHERN FOOTHILLS...

CITY           SKY/WX    TMP DP  RH WIND       PRES   REMARKS
COLO. SPRINGS  FAIR      73  56  54 SE5       30.30F
A. F. ACADEMY  MOSUNNY   74  53  47 VRB3      30.31F
SCHRIEVER AFB  NOT AVBL
ELLICOTT       LGT RAIN N/A N/A N/A SW7       30.28F
FALCON         FAIR      75  52  44 S9        30.35F
FORT CARSON    FAIR      73  59  60 SE7       30.27F
LIMON          FAIR      80  56  43 S16G24    30.23F
MONUMENT HILL  FAIR      79  43  27 SW8       30.35S
TRINIDAD       NOT AVBL
$$

COZ042>045-048>051-090-091-251800-
...NORTHEAST COLORADO...

CITY           SKY/WX    TMP DP  RH WIND       PRES   REMARKS
GREELEY ARPT   FAIR      77  59  53 S5        30.19F
AKRON          FAIR      75  58  55 SE20G25   30.20F
BURLINGTON     FAIR      75  63  66 SE15      30.22S
WRAY           NOT AVBL
STERLING       FAIR      79  61  53 S15       30.16F
HOLYOKE          N/A     79  61  53 W14       30.19F
FORT MORGAN    FAIR      78  58  49 SE10      30.19S
$$

COZ086-089-092>099-251800-
...SOUTHEAST COLORADO...

CITY           SKY/WX    TMP DP  RH WIND       PRES   REMARKS
PUEBLO         FAIR      82  58  43 S6        30.20F
LA JUNTA       FAIR      77  64  64 E6        30.20S
LAMAR          FAIR      82  61  48 E6        30.16F
SPRINGFIELD      N/A     84  57  39 E8        30.20S
$$




USA.gov is the U.S. government's official web portal to all federal, state and local government web resources and services.